AirNav   Air Wisconsin pilot careers
 
 939 users online  

9K6 Patty Field Airport
El Dorado, Kansas, USA

GOING TO EL DORADO?


FAA INFORMATION EFFECTIVE 29 MARCH 2018

Location

FAA Identifier: 9K6
Lat/Long: 37-48-01.6000N / 096-47-56.5000W
37-48.026667N / 096-47.941667W
37.8004444 / -96.7990278
(estimated)
Elevation: 1385 ft. / 422 m (estimated)
Variation: 06E (1985)
From city: 3 miles SE of EL DORADO, KS
Time zone: UTC -5 (UTC -6 during Standard Time)
Zip code: 67042

Airport Operations

Airport use: Open to the public
Activation date: 05/1963
Control tower: no
ARTCC: KANSAS CITY CENTER
FSS: WICHITA FLIGHT SERVICE STATION
NOTAMs facility: ICT (NOTAM-D service available)
Attendance: UNATNDD
OWNER LIVES ON FIELD.
Wind indicator: yes
Segmented circle: no

Airport Communications

CTAF: 122.9
WX AWOS-3P at EQA (1.8 nm SW): 120.875 (316-322-8095)
WX AWOS-3 at 1K1 (15 nm W): 118.3 (316-530-6004)
WX AWOS-3PT at 3AU (15 nm SW): 124.175 (316-733-6696)

Nearby radio navigation aids

VOR radial/distance  VOR name  Freq  Var
ICTr078/37.4WICHITA VORTAC113.8007E

 
NDB name  Hdg/Dist  Freq  Var  ID
NEWTON119/27.528106EEWK . .-- -.-

Airport Services

Parking: hangars and tiedowns
Airframe service: MAJOR
Powerplant service: MAJOR
Bottled oxygen: NONE
Bulk oxygen: NONE

Runway Information

Runway 18/36

Dimensions: 1800 x 60 ft. / 549 x 18 m
Surface: turf, in fair condition
RUNWAY 18  RUNWAY 36
Traffic pattern: leftleft
Obstructions: 4 ft. fence, marked4 ft. fence, marked

Airport Ownership and Management from official FAA records

Ownership: Privately-owned
Owner: BRENT A. PATTY
1761 SE BLUESTEM ROAD
EL DORADO, KS 67042
Phone 316-321-9192
Manager: BRENT A. PATTY
1761 SE BLUESTEM ROAD
EL DORADO, KS 67042
Phone 316-321-9192

Airport Operational Statistics

Aircraft based on the field: 2
Single engine airplanes: 2
    
Aircraft operations: avg 54/month *
92% local general aviation
8% transient general aviation
* for 12-month period ending 02 November 2017

Additional Remarks

WATER TOWER 1/4 MILE NE.
RY 18 HAS TREES AT THLD 30 FT RIGHT & LEFT OF CNTRLN.

Instrument Procedures

There are no published instrument procedures at 9K6.

Some nearby airports with instrument procedures:

KEQA - El Dorado/Captain Jack Thomas Memorial Airport (2 nm SW)
1K1 - Lloyd Stearman Field Airport (15 nm W)
3AU - Augusta Municipal Airport (15 nm SW)
KAAO - Colonel James Jabara Airport (20 nm W)
KBEC - Beech Factory Airport (21 nm W)
 
Loc | Ops | Rwys | IFR | FBO | Links
Com | Nav | Svcs | Stats | Notes

Kansas City Aviation Department
 
Area around 9K6 (Patty Field Airport)
 
Road maps at: MapQuest Bing Google
 
Aerial photo
WARNING: Photo may not be current or correct
Aerial photo of 9K6 (Patty Field Airport)
Do you have a better or more recent aerial photo of Patty Field Airport that you would like to share? If so, please send us your photo.

 
Sectional chart

 
Airport distance calculator
Flying to Patty Field Airport? Find the distance to fly.

From to 9K6

Sunrise and sunset
Times for 24-Apr-2018
 Local
(UTC-5)
 Zulu
(UTC)
Morning civil twilight06:1311:13
Sunrise06:4111:41
Sunset20:1001:10
Evening civil twilight20:3801:38

Current date and time
Zulu (UTC)  24-Apr-2018 12:17:28
Local (UTC-5)  24-Apr-2018 07:17:28
 
METAR
KEQA 
2nm SW 
241155Z AUTO 00000KT 10SM CLR 07/06 A3011 RMK AO2
K1K1 
15nm W 
241155Z AUTO 36003KT 10SM CLR 07/04 A3012 RMK AO2 T00710039 10114 20064
K3AU 
15nm SW 
241155Z AUTO 35003KT 10SM CLR 07/05 A3011 RMK AO2
TAF
KIAB 
25nm SW 
241000Z 2410/2516 36006KT 9999 SKC QNH3006INS BECMG 2418/2419 36010KT 9999 BKN150 QNH3012INS BECMG 2423/2424 36012G20KT 9999 OVC070 600802 QNH3014INS BECMG 2505/2506 36012KT 9000 -SHRA OVC030 620909 QNH3017INS BECMG 2509/2510 36008KT 4800 -SHRA BR SCT006 OVC015 620809 QNH3020INS BECMG 2513/2514 33008KT 9000 -SHRA OVC006 620709 QNH3024INS TX24/2421Z TN08/2412Z
NOTAMs
Click for the latest NOTAMs
NOTAMs are issued by the DoD/FAA and will open in a separate window not controlled by AirNav.

 

 
 

Would you like to see your business listed on this page?

 If your business provides an interesting product or service to pilots, flight crews, aircraft, or users of the Patty Field Airport, you should consider listing it here.  To start the listing process, click on the button below
 
Add a business
 

Other Pages about Patty Field Airport

Update a link
 
Copyright © AirNav, LLC. All rights reserved. Privacy Policy  Contact